User: anonymous   Login
Location: Boca do Mato
(22.9085°S, 43.2930°W)
Time: 00:40:05
(UTC+00:00)
Language:

Cosmos 1937 Rocket - Orbit

View from above orbital plane
View from above orbital plane
View from above satellite
View from above satellite

Ground track
Ground track

The orbit data is extracted from the following two-line orbital elements,

1 19039U 88029B   20271.68451887  .00000130  00000-0  50988-4 0  9996
2 19039  74.0462 252.2076 0022650 130.1491 230.1652 14.38485524703176
Epoch (UTC): 27 September 2020 16:25:42
Eccentricity: 0.0022650
inclination: 74.0462°
perigee height: 747 km
apogee height: 779 km
right ascension of ascending node: 252.2076°
argument of perigee: 130.1491°
revolutions per day: 14.38485524
mean anomaly at epoch: 230.1652°
orbit number at epoch: 70317

The dashed part of the orbit path shows where the satellite is in the earth's shadow,  

DLR